sat.trackr.live / text

‹ back to catalog

STARLINK-36428

NORAD 67362 · 2026-003AE

PAYLOAD ACTIVE UNKNOWN

§ Identity

Operator
Country
US
Launch date
2026-01-09
Launch site
AFETR
Launch vehicle
Mass (kg)
RCS (m²)

Purposes: comms

External: N2YO · Heavens-Above · Gunter

§ Orbital elements

Epoch: 2026-05-25T01:13:55.800192Z

Period
94.27 min
Inclination
42.9999°
Eccentricity
0.0000595
Mean motion
15.27587626 rev/d
Perigee alt
482.6 km
Apogee alt
483.4 km
Semi-major
6,861.2 km
B*
2.7182e-4
RAAN
155.7078°
Arg perigee
236.4785°
Mean anomaly
123.6010°
Rev number
2,050

§ Raw data

STARLINK-364281 67362U 26003AE  26145.05134028  .00007227  00000+0  27182-3 0  99962 67362  42.9999 155.7078 0000595 236.4785 123.6010 15.27587626 20504

JSON: /api/v1/satellites/67362 · /tle

For live sub-satellite position, see the globe view (requires WebGL).

§ Visibility from observer

Set your observer location to see the next 7 days of passes ≥ 10°. The values pass through the URL so the page stays shareable.

No JS? Fill the form by hand. The geolocation button needs JavaScript.